[[{"header":{"parameterUnit":"m.s-1","parameterCategory":1,"la1":30.2991,"la2":30.254,"lo1":-89.0895,"lo2":-89.0444,"dy":0.0017,"dx":0.0017,"nx":28,"ny":28,"refTime":"2024-04-20T21:00:00:Z","depth":0,"parameterNumber":2,"parameterNumberName":"U-component_of_WINDS"},"data":[0,0,0,0,0,0,0,0,0,0,0,0,0,0,0,0,0,0,0,0,0,0,0,0,0,0,0,0,0,0,0,0,0,0,0,0,0,0,0,0,0,0,0,0,0,0,0,0,0,0,0,0,0,0,0,0,0,0,0.1711,0.1711,0,0.1677,0.1677,0.1676,0.1675,0.1675,0.1676,0.1676,0.1639,0.1637,0.1636,0,0,0,0,0,0,0,0,0,0,0,0,0,0.1775,0.1774,0.1712,0.1711,0.1711,0.1677,0.1677,0.1676,0.1675,0.1675,0.1676,0.1676,0.1639,0.1638,0.1636,0,0,0,0,0,0,0,0,0,0,0,0,0,0.1745,0.1774,0.1712,0.1706,0.1705,0.1677,0.1677,0.1676,0.1675,0.1675,0.1676,0.1676,0.164,0.1638,0.1636,0.161,0,0,0.1629,0.1628,0,0,0,0,0,0,0,0,0.1747,0.1743,0.1707,0.1706,0.1705,0.1681,0.1685,0.1654,0.1674,0.1686,0.1676,0.1677,0.1652,0.1649,0.1641,0.1608,0.1607,0.1629,0.1628,0.1627,0.1626,0,0,0,0,0,0,0,0.1749,0.1744,0.1698,0.1707,0.1706,0.1705,0.1701,0.1679,0.1666,0.1685,0.1685,0.1681,0.1652,0.1643,0.164,0.1606,0.1629,0.1627,0.1626,0.1625,0.1552,0.1552,0,0,0,0,0,0,0.1752,0.1746,0.1699,0.1697,0.1728,0.1703,0.1699,0.1688,0.1666,0.1664,0.1681,0.1681,0.1646,0.1643,0.1639,0.1608,0.1627,0.1625,0.1624,0.1553,0.1552,0.1551,0,0,0,0,0,0,0.1754,0.1748,0.17,0.1721,0.1715,0.1702,0.1689,0.1687,0.1678,0.1663,0.166,0.1674,0.1647,0.1642,0.1618,0.1607,0.1624,0.1622,0.1554,0.1553,0.1552,0.1546,0,0,0,0,0,0,0.1755,0.1749,0.1739,0.1721,0.1714,0.168,0.1688,0.1686,0.1675,0.1676,0.1656,0.1654,0.1647,0.1621,0.1616,0.1604,0.1621,0.1555,0.1553,0.1552,0.1547,0.1545,0.1543,0,0,0,0,0,0.1758,0.1738,0.1738,0.1733,0.1702,0.1679,0.1675,0.1668,0.1674,0.1664,0.1655,0.1654,0.1609,0.1618,0.1613,0.16,0.1555,0.1554,0.1552,0.1548,0.1545,0.1543,0,0,0,0,0,0,0.1753,0.1735,0.1736,0.171,0.1696,0.1679,0.1666,0.1666,0.1649,0.165,0.1642,0.1638,0.1614,0.1605,0.1616,0.1575,0.1583,0.158,0.1582,0.1579,0.1577,0.1579,0.1619,0,0,0,0,0,0.175,0.1733,0.1718,0.1697,0.169,0.1679,0.1669,0.1666,0.1651,0.1645,0.1633,0.1619,0.1601,0.159,0.1573,0.1547,0.1542,0.1535,0.1533,0.1532,0.1529,0.1515,0.1512,0.1546,0.1546,0.1546,0,0,0.1741,0.1729,0.1719,0.1696,0.1685,0.1668,0.1674,0.1656,0.1643,0.1642,0.1619,0.161,0.1593,0.1568,0.1556,0.1559,0.1519,0.153,0.1529,0.1527,0.1513,0.151,0.1507,0.1545,0.1545,0.1546,0,0,0.1717,0.1707,0.1688,0.1677,0.1661,0.1655,0.165,0.1634,0.1628,0.1605,0.1604,0.1589,0.1559,0.1547,0.1537,0.1511,0.151,0.1506,0.1495,0.1481,0.1479,0.1476,0.1467,0.1464,0.1504,0.1504,0.1504,0,0.1708,0.1683,0.1678,0.166,0.165,0.1649,0.163,0.162,0.1599,0.1592,0.1596,0.156,0.1548,0.1521,0.1515,0.1507,0.1502,0.1507,0.148,0.1477,0.1475,0.1466,0.1462,0.1503,0.1503,0.1503,0.1503,0,0.1673,0.1656,0.1643,0.1624,0.1612,0.1594,0.1586,0.1575,0.1573,0.1565,0.1542,0.1529,0.151,0.1503,0.15,0.1476,0.1478,0.1481,0.1489,0.1471,0.1462,0.1459,0.1502,0.1503,0.1503,0.1503,0,0,0.1643,0.1623,0.1619,0.161,0.1594,0.158,0.1562,0.1544,0.1535,0.1521,0.1506,0.1482,0.1485,0.1474,0.147,0.1458,0.1438,0.1462,0.1462,0.1458,0.1411,0.1408,0.1404,0.1439,0.1438,0.1437,0.1412,0,0.1617,0.1586,0.1581,0.1553,0.1537,0.1538,0.1522,0.151,0.1504,0.1489,0.1482,0.1465,0.147,0.1464,0.1452,0.1443,0.1429,0.1445,0.1424,0.1423,0.1427,0.14,0.1396,0.1373,0.1409,0.1408,0.1408,0,0.1582,0.1568,0.1539,0.1526,0.1519,0.1505,0.1489,0.1475,0.1462,0.1458,0.1447,0.1445,0.1426,0.1436,0.141,0.1422,0.1413,0.1407,0.1406,0.1403,0.1413,0.1395,0.1365,0.1362,0.1402,0.1403,0.1403,0,0.1563,0.1537,0.1517,0.151,0.1493,0.1484,0.1477,0.1464,0.1454,0.144,0.1434,0.1418,0.1409,0.1397,0.139,0.1398,0.1365,0.1374,0.1361,0.1362,0.1353,0.1354,0.1321,0.1349,0.1349,0.1349,0.1349,0,0.1534,0.1515,0.1508,0.1495,0.1475,0.1471,0.1451,0.1444,0.1434,0.1419,0.1419,0.1405,0.1399,0.1384,0.138,0.1359,0.1355,0.1352,0.135,0.1351,0.1352,0.1344,0.1346,0.1348,0.1348,0.1349,0.1349,0,0.1508,0.1503,0.148,0.1468,0.1464,0.145,0.1439,0.1427,0.1421,0.1403,0.1399,0.139,0.1373,0.1366,0.1345,0.1342,0.1319,0.1319,0.1324,0.1323,0.1311,0.1312,0.1272,0.1266,0.1298,0.1298,0.1298,0,0.1489,0.1476,0.1462,0.1453,0.1446,0.1431,0.1422,0.1417,0.1407,0.1392,0.1382,0.1366,0.1352,0.1326,0.1317,0.1301,0.1301,0.1288,0.1298,0.13,0.13,0.1301,0.13,0.1286,0.1285,0.1285,0.1285,0,0.1457,0.1455,0.1441,0.1427,0.1416,0.1405,0.1393,0.1386,0.138,0.1369,0.1352,0.1342,0.1322,0.1306,0.129,0.1283,0.1283,0.1282,0.1278,0.1278,0.1281,0.128,0.1318,0.1283,0.1283,0.1283,0.1283,0.1283,0.1434,0.1422,0.1411,0.1396,0.1388,0.1378,0.1366,0.136,0.1346,0.133,0.1328,0.1311,0.1299,0.1278,0.127,0.1256,0.126,0.1254,0.1253,0.1251,0.125,0.1285,0.1254,0.1254,0.1254,0.1254,0.1254,0,0.1401,0.1394,0.1381,0.1366,0.1354,0.1357,0.1345,0.1335,0.132,0.131,0.1297,0.1279,0.1264,0.1255,0.1239,0.123,0.123,0.1226,0.1226,0.1225,0.1248,0.1253,0.1227,0.1227,0.1227,0.1227,0.1227,0.1227,0.1382,0.1362,0.136,0.1336,0.133,0.1313,0.1306,0.1297,0.1289,0.1269,0.1257,0.1251,0.1242,0.1226,0.1212,0.121,0.1204,0.1201,0.1198,0.122,0.1223,0.1226,0.123,0.1199,0.1199,0.1176,0.1176,0.1176]},{"header":{"parameterUnit":"m.s-1","parameterCategory":1,"la1":30.2991,"la2":30.254,"lo1":-89.0895,"lo2":-89.0444,"dy":0.0017,"dx":0.0017,"nx":28,"ny":28,"refTime":"2024-04-20T21:00:00:Z","depth":0,"parameterNumber":3,"parameterNumberName":"V-component_of_WINDS"},"data":[0,0,0,0,0,0,0,0,0,0,0,0,0,0,0,0,0,0,0,0,0,0,0,0,0,0,0,0,0,0,0,0,0,0,0,0,0,0,0,0,0,0,0,0,0,0,0,0,0,0,0,0,0,0,0,0,0,0,-6.9121,-6.9121,0,-6.9187,-6.9187,-6.9188,-6.91,-6.9097,-6.9094,-6.9091,-6.9154,-6.9158,-6.9163,0,0,0,0,0,0,0,0,0,0,0,0,0,-6.8914,-6.8918,-6.912,-6.9121,-6.9122,-6.9186,-6.9187,-6.9188,-6.9101,-6.9097,-6.9093,-6.909,-6.9152,-6.9158,-6.9163,0,0,0,0,0,0,0,0,0,0,0,0,0,-6.8994,-6.8919,-6.912,-6.9087,-6.9084,-6.9186,-6.9187,-6.9188,-6.9102,-6.9097,-6.9092,-6.9088,-6.915,-6.9157,-6.9164,-6.9301,0,0,-6.9185,-6.9188,0,0,0,0,0,0,0,0,-6.899,-6.9002,-6.9091,-6.9089,-6.9087,-6.9131,-6.9137,-6.9226,-6.9103,-6.9095,-6.9091,-6.9086,-6.915,-6.9156,-6.9179,-6.9304,-6.9306,-6.9186,-6.919,-6.9193,-6.9195,0,0,0,0,0,0,0,-6.8984,-6.8998,-6.9146,-6.9092,-6.909,-6.9066,-6.9073,-6.9154,-6.9148,-6.9095,-6.9089,-6.9098,-6.9147,-6.9172,-6.918,-6.9307,-6.9185,-6.9192,-6.9196,-6.9198,-6.9547,-6.9552,0,0,0,0,0,0,-6.8983,-6.8994,-6.9144,-6.9148,-6.9026,-6.9074,-6.9081,-6.9121,-6.9147,-6.9146,-6.9102,-6.9094,-6.9163,-6.9172,-6.9181,-6.9343,-6.9193,-6.9199,-6.9203,-6.9542,-6.9548,-6.9553,0,0,0,0,0,0,-6.8979,-6.8998,-6.9142,-6.907,-6.9086,-6.9083,-6.9128,-6.9125,-6.915,-6.9152,-6.915,-6.9129,-6.9159,-6.9172,-6.9272,-6.9343,-6.9202,-6.9208,-6.9536,-6.9544,-6.9551,-6.9667,0,0,0,0,0,0,-6.8974,-6.8997,-6.905,-6.9072,-6.9091,-6.9233,-6.9133,-6.913,-6.9162,-6.9152,-6.9177,-6.9176,-6.9157,-6.9262,-6.9279,-6.935,-6.9214,-6.9529,-6.9539,-6.9548,-6.9656,-6.9677,-6.9695,0,0,0,0,0,-6.8967,-6.9079,-6.9053,-6.9071,-6.9157,-6.9237,-6.9248,-6.9225,-6.9169,-6.9221,-6.9223,-6.9175,-6.9333,-6.9273,-6.9291,-6.9366,-6.9524,-6.9536,-6.9547,-6.9648,-6.9673,-6.9695,0,0,0,0,0,0,-6.9063,-6.9081,-6.9052,-6.9175,-6.9206,-6.9222,-6.9288,-6.9253,-6.9298,-6.9286,-6.9254,-6.926,-6.9367,-6.9376,-6.9309,-6.9499,-6.9419,-6.9435,-6.9489,-6.9514,-6.9533,-6.9528,-6.922,0,0,0,0,0,-6.9099,-6.9165,-6.9176,-6.9283,-6.93,-6.9292,-6.9326,-6.9306,-6.9335,-6.9346,-6.9355,-6.9384,-6.944,-6.9477,-6.9529,-6.9658,-6.9661,-6.9718,-6.9737,-6.9753,-6.9767,-6.9835,-6.986,-6.9591,-6.9591,-6.9591,0,0,-6.9174,-6.9191,-6.9234,-6.9303,-6.9324,-6.9391,-6.9303,-6.9377,-6.9426,-6.9357,-6.9453,-6.946,-6.949,-6.9605,-6.9656,-6.9616,-6.9842,-6.9768,-6.9781,-6.9786,-6.9849,-6.9874,-6.9897,-6.9599,-6.9598,-6.9596,0,0,-6.9343,-6.9364,-6.9455,-6.9479,-6.9512,-6.9506,-6.9528,-6.9551,-6.9554,-6.9649,-6.9599,-6.9656,-6.9753,-6.9776,-6.9801,-6.998,-6.9938,-6.9998,-7.0099,-7.0165,-7.0186,-7.0205,-7.0268,-7.0291,-7.0011,-7.0012,-7.0012,0,-6.943,-6.9531,-6.9506,-6.9585,-6.9616,-6.9559,-6.965,-6.9673,-6.9722,-6.9744,-6.9699,-6.982,-6.9836,-6.9955,-6.9999,-7.0021,-7.0044,-6.9994,-7.0186,-7.0204,-7.0221,-7.0281,-7.0304,-7.0019,-7.0018,-7.0017,-7.0016,0,-6.9636,-6.9706,-6.9776,-6.9826,-6.9865,-6.995,-6.9936,-6.9979,-6.9955,-6.9953,-7.0051,-7.0069,-7.0123,-7.015,-7.0127,-7.0266,-7.024,-7.0191,-7.011,-7.0254,-7.0309,-7.0332,-7.0029,-7.0026,-7.0024,-7.0022,0,0,-6.9867,-6.9904,-6.9929,-6.9951,-6.9985,-7.0038,-7.0119,-7.0174,-7.021,-7.0245,-7.0312,-7.0396,-7.0351,-7.0379,-7.0358,-7.0417,-7.0557,-7.0361,-7.0361,-7.0396,-7.071,-7.0746,-7.0773,-7.053,-7.0534,-7.0537,-7.0707,0,-7.0036,-7.0179,-7.0159,-7.0296,-7.0359,-7.0307,-7.0377,-7.0405,-7.0405,-7.0458,-7.0458,-7.0518,-7.0455,-7.0471,-7.0527,-7.0528,-7.0619,-7.0516,-7.0589,-7.0592,-7.0583,-7.0802,-7.084,-7.0999,-7.0729,-7.0732,-7.0735,0,-7.0251,-7.0297,-7.044,-7.0464,-7.049,-7.0554,-7.0602,-7.0654,-7.0684,-7.068,-7.0712,-7.0681,-7.076,-7.0679,-7.0788,-7.0718,-7.0747,-7.0752,-7.0757,-7.0762,-7.0672,-7.0812,-7.1049,-7.1073,-7.0769,-7.0766,-7.0764,0,-7.0405,-7.0501,-7.0599,-7.062,-7.065,-7.0696,-7.0711,-7.0736,-7.077,-7.0812,-7.0833,-7.0883,-7.091,-7.0949,-7.0932,-7.0874,-7.1043,-7.0961,-7.1041,-7.1042,-7.1078,-7.1076,-7.1323,-7.1099,-7.1098,-7.1098,-7.1097,0,-7.0594,-7.0684,-7.0669,-7.0729,-7.0827,-7.0804,-7.0901,-7.0909,-7.0932,-7.0991,-7.0948,-7.1004,-7.0979,-7.1033,-7.102,-7.1111,-7.1124,-7.1122,-7.1117,-7.1125,-7.1125,-7.1143,-7.1131,-7.1104,-7.1103,-7.1102,-7.1101,0,-7.0781,-7.0775,-7.0879,-7.0899,-7.0907,-7.0978,-7.0995,-7.1051,-7.1048,-7.1124,-7.1141,-7.1137,-7.1198,-7.1185,-7.1252,-7.1243,-7.1358,-7.134,-7.1349,-7.1344,-7.1425,-7.1417,-7.1691,-7.1725,-7.148,-7.1482,-7.1484,0,-7.0902,-7.097,-7.0999,-7.1037,-7.1056,-7.1117,-7.1152,-7.1131,-7.1169,-7.1208,-7.1259,-7.1317,-7.1362,-7.1463,-7.1465,-7.1516,-7.1498,-7.1591,-7.1505,-7.1511,-7.1498,-7.1494,-7.15,-7.1607,-7.161,-7.1612,-7.1614,0,-7.1118,-7.1112,-7.1165,-7.1218,-7.1261,-7.1301,-7.1337,-7.137,-7.1351,-7.1396,-7.146,-7.1495,-7.1565,-7.1623,-7.167,-7.1682,-7.1645,-7.1641,-7.1662,-7.1671,-7.1673,-7.1672,-7.1394,-7.1635,-7.1632,-7.1631,-7.163,-7.1629,-7.1275,-7.1333,-7.1362,-7.1423,-7.1448,-7.1482,-7.1536,-7.1541,-7.1595,-7.1651,-7.1635,-7.1707,-7.1734,-7.1794,-7.1812,-7.1867,-7.1832,-7.1863,-7.187,-7.1878,-7.1888,-7.1665,-7.1876,-7.1875,-7.1874,-7.1874,-7.1873,0,-7.1487,-7.1504,-7.156,-7.1612,-7.166,-7.1623,-7.166,-7.1702,-7.1767,-7.1796,-7.1842,-7.1915,-7.1971,-7.1978,-7.203,-7.2073,-7.2057,-7.2087,-7.2083,-7.2087,-7.1916,-7.1893,-7.2099,-7.2099,-7.2099,-7.2099,-7.2099,-7.2099,-7.1603,-7.1699,-7.1696,-7.1804,-7.1819,-7.1891,-7.1916,-7.1947,-7.197,-7.2054,-7.2101,-7.2106,-7.2126,-7.2179,-7.2229,-7.2229,-7.225,-7.2287,-7.2281,-7.2121,-7.2099,-7.2077,-7.2055,-7.2292,-7.2292,-7.2446,-7.2447,-7.2448]}]]